Main page
METAR-TAF:

METAR-TAF

Airports :

Philip Municipal Airport

Philip, South Dakota, United States

latitude: 44-03-04N, longitude: 101-36-04W, elevation: 2207 ft

Current weather observation

The report was made 17 minutes ago, at 22:55 UTC
Wind 5 mph from variable directions
Temperature 88°F
Humidity 46%
Pressure 29.81 in. Hg
Visibility: 10 miles
Clear sky

METAR: KPHP 012255Z AUTO VRB04KT 10SM CLR 31/18 A2981 RMK AO2 SLP074 T03110183

Time: 17:12 (23:12 UTC)


TAF: missing

Weather observations and forecasts of more than 4000 airports (METAR and TAF reports).

The available stations are represented by yellow and red dots on the map.

Hover mouse over dot to see the name of the station.

Then click to see weather observations and forecasts.

To change the map : click on the green buttons with a black cross to zoom in, on the green button with a dash to zoom out, or on the green arrows for adjacent maps.


METAR-TAF: